map of BPG home
Great Circle Mapper logo
BPG - Airport
Location
City:  Barra do Garças, Mato Grosso, Brazil
ICAO / IATA:SBBW / BPG

Details
Type:Airport (Aerodrome, Airfield)
Latitude:15°51'41"S (-15.861343)
Longitude:52°23'20"W (-52.388893)
Datum:WGS 1984
Elevation:1147 ft (350 m)
Variation:19.21°W (WMM2015 magnetic declination)
-0.13° annual change
Runways:1
Longest:5243 × 98 ft (1598 × 30 m), paved

Time
Time Zone:UTC-4 (DST-3)
Local Time:

Weather
METAR:SBBW 032200Z 09002KT CAVOK 26/15 Q1016
TAF:SBBW 040500Z 0406/0418 15004KT CAVOK TN19/0410Z TX33/0417Z
BECMG 0413/0415 10010KT
RMK PDC

Related Locations
Nearby:
Farthest:VRC: 12166 mi / 19579 km
Virac, Catanduanes Island, PH

Find:

   beyond  
but within

Other Information
Maps:
NOTAMs:
Links:
Sources:

  
flag of Brazil
flag of Mato Grosso
  

Sectional Chart

Flight Planning
at skyvector.com

Satellite Image

Google Maps Satellite view

 

Copyright © 2004-2015 Karl L. Swartz. All rights reserved.
The Great Circle Mapper name and logo are trademarks of the Great Circle Mapper.
All other trademarks mentioned herein belong to their respective owners.
Please see credits for attibutions and further copyright information.

  Follow gcmap on Facebook Follow gcmap on Twitter Follow gcmap on Google+

hCard Microformat

Geo Microformat